User: anonymous   Login
Location: Vancouver
(49.2500°N, 123.1330°W)
Time: 07:26:54
(UTC-07:00)
Language:

S-56A Canister/Altair - Orbit

View from above orbital plane
View from above orbital plane
View from above satellite
View from above satellite

Ground track
Ground track

The orbit data is extracted from the following two-line orbital elements,

1 00082U 61004B   14293.44161840  .00000100  00000-0  11070-3 0  7315
2 00082 038.8607 288.7927 1176966 191.2425 165.9638 12.25645133554146
Epoch (UTC): 20 October 2014 10:35:55
Eccentricity: 0.1176966
inclination: 38.8607°
perigee height: 633 km
apogee height: 2503 km
right ascension of ascending node: 288.7927°
argument of perigee: 191.2425°
revolutions per day: 12.25645133
mean anomaly at epoch: 165.9638°
orbit number at epoch: 55414

The dashed part of the orbit path shows where the satellite is in the earth's shadow,  

DLR